Regional Weather Roundup
Issued by NWS

Home | Current Version | Previous Version | Text Only | Print | Product List | Glossary On
Versions: 1 2 3 4 5 6 7 8 9 10 11 12 13 14 15 16 17 18 19 20 21 22 23 24 25 26 27 28 29 30 31 32 33 34 35 36 37 38 39 40 41 42 43 44 45 46 47 48 49 50
000
ASHW40 PHFO 251643
RWRHI

WEATHER ROUNDUP FOR HAWAII
NATIONAL WEATHER SERVICE HONOLULU HI
600 AM HST TUE APR 25 2017

THIS IS AN AUTOMATED REPORT THAT HAS NOT BEEN QUALITY CONTROLLED.

NOTE..."FAIR" INDICATES FEW OR NO CLOUDS BELOW 12,000 FEET WITH NO
SIGNIFICANT WEATHER AND/OR OBSTRUCTIONS TO VISIBILITY.

* - THESE SITES REPORT LIMITED FIELDS

HIZ001>004-251700-
KAUAI-NIIHAU-

CITY           SKY/WX    TMP DP  RH WIND       PRES   REMARKS
LIHUE APT      PTCLDY    75  67  76 NE15      30.10R
PORT ALLEN*      N/A     66 N/A N/A N6          N/A
POIPU*           N/A     72 N/A N/A NE6         N/A
PRINCEVILLE*     N/A     68 N/A N/A S2          N/A
KOKOLE POINT*  NOT AVBL
MOLOAA DAIRY*    N/A     70  66  88 SE1         N/A
WAIMEA HTS*      N/A     70  54  56 VRB2        N/A
PUU OPAE*      NOT AVBL
PUU LUA*       NOT AVBL
MAKAHA RIDGE*  NOT AVBL
$$

HIZ005>011-251700-
OAHU-

CITY           SKY/WX    TMP DP  RH WIND       PRES   REMARKS
HONOLULU       PTCLDY    74  64  71 NE8       30.07R
KALAELOA       PTCLDY    70  63  78 NE3       30.09R
KANEOHE MCB    NOT AVBL
WHEELER FIELD  FAIR      66  63  90 NW5       30.08
BELLOWS*         N/A    N/A N/A N/A NE14        N/A
KAHUKU*          N/A    N/A N/A N/A E7G14       N/A
WHEELER*         N/A    N/A N/A N/A N2          N/A
WAIANAE HARBOR   N/A    N/A N/A N/A NE2         N/A
DILLINGHAM*      N/A     91  88  89 W1G10       N/A  HX 127
KAHUKU TRN*      N/A     86  81  84 W6G14       N/A  HX 102
KAWAILOA*        N/A     70  63  78 E9          N/A
KII*             N/A     75  68  78 E13G18      N/A
MAKUA RANGE*     N/A     73  63  68 NW3G15      N/A
OAHU FOREST NW   N/A     68  61  77 E8G22       N/A
SCHOFIELD BRK*   N/A     66  63  88 MISG        N/A
SCHOFIELD S*   NOT AVBL
WAIANAE VLY*     N/A     72  61  68 N5G17       N/A
KUAOKALA*        N/A     72  63  73 E10G17      N/A
HONOULIUULI*   NOT AVBL
MOKUOLOE IS*   NOT AVBL
PALEHUA*         N/A     64  61  88 NE12G23     N/A
WAIAWA PHB*    NOT AVBL
$$

HIZ012>013-251700-
MOLOKAI-

CITY           SKY/WX    TMP DP  RH WIND       PRES   REMARKS
MOLOKAI AIRPT  PTCLDY    66  66 100 NE12G17   30.09R
KALAUPAPA      NOT AVBL
MAKAPULAPAI*     N/A     75  66  73 E16G23      N/A
MOLOKAI 1*       N/A     61  55  82 E1          N/A
PUU ALII*        N/A     57  56  95 N3G12       N/A
$$

HIZ016-251700-
KAHOOLAWE-

CITY           SKY/WX    TMP DP  RH WIND       PRES   REMARKS
KAHOOLAWE*     NOT AVBL
HAKIOAWA*        N/A     69  63  81 MISG      30.49R
HONOKANAIA*      N/A     71  63  75 VRB6G12     N/A
KANELOA*         N/A     72  61  68 NE9G18    30.11
KEALIALALO*    NOT AVBL
LUA MAKIKA*    NOT AVBL
$$

HIZ014>015-251700-
LANAI-

CITY           SKY/WX    TMP DP  RH WIND       PRES   REMARKS
LANAI CITY     FAIR      66  62  87 NE8       30.12R
LANAI 1*         N/A    N/A N/A N/A NE9         N/A
$$

HIZ017>028-251700-
MAUI-

CITY           SKY/WX    TMP DP  RH WIND       PRES   REMARKS
KAHULUI        PTCLDY    73  64  73 NE12      30.06S
KAPALUA-W MAUI NOT AVBL
HANA AIRPORT   NOT AVBL
HANA*            N/A     70 N/A N/A S3          N/A
HALEAKALA SUMM   N/A     39  32  75 E40         N/A  WCI  26
MAALAEA BAY*     N/A     73 N/A N/A NE15G22     N/A
HALEAKALA*     NOT AVBL
KAUPO GAP*     NOT AVBL
KULA 1*          N/A    N/A N/A N/A NE6         N/A
$$

HIZ023>026-251700-
BIG ISLAND OF HAWAII COAST AND LOWER SLOPES-

CITY           SKY/WX    TMP DP  RH WIND       PRES   REMARKS
KAILUA KONA    CLEAR     72  59  63 SE10      30.02R
HILO           MOCLDY    68  54  60 S3        30.09R
HONOKAA*         N/A     66 N/A N/A VRB1        N/A
KAWAIHAE MWT*    N/A     77 N/A N/A SE8G15      N/A
KAWAIHAE*        N/A     79 N/A N/A E9        30.03R
SOUTH POINT*     N/A     68 N/A N/A N10         N/A
UPOLU AIRPORT* NOT AVBL
KAMUELA*       CLOUDY    63  61  94 NE9       30.15R
HAKALAU*         N/A     48  45  87 S2G12       N/A
KALOKO-HONOKO* NOT AVBL
PALI 2*          N/A     63  50  63 S10G18      N/A
KEALAKOMO*       N/A     75  57  53 N13G26      N/A
KAUPULEHU*       N/A     68  54  60 SE7         N/A
KAPAPALA*        N/A     60  46  59 N5G13       N/A
LOWER KAHUKU*    N/A     61  50  67 VRB2G10     N/A
PUHE CS*         N/A     75  54  46 E10G26      N/A
PUHO CS*         N/A     70  61  73 E2          N/A
PTA KEAMUKU*     N/A     54  43  66 CALM        N/A
WAIKOLOA*        N/A     68  55  64 E12G18      N/A
$$

HIZ027>028-251700-
BIG ISLAND OF HAWAII INTERIOR AND SUMMMITS-

CITY           SKY/WX    TMP DP  RH WIND       PRES   REMARKS
BRADSHAW FIELD CLOUDY    51  27  39 CALM      30.32R
MK VISITOR CEN   N/A     50 -22   4 NE16        N/A
MAUNA KEA*       N/A     32 -20   9 E16         N/A  WCI  21
MAUNA LOA*       N/A     41 -29   4 MISG        N/A
MAUNA LOA 1*   NOT AVBL
PTA KIPUKA*      N/A     45  45 100 SE5G10      N/A
PTA RANGE 17*    N/A     52  39  62 SE22G33     N/A
PTA WEST*        N/A     48  36  61 E9          N/A
NENE CABIN*      N/A     46  36  66 NE9G20      N/A
AHUMOA*          N/A    N/A N/A N/A E6G14       N/A
PTA PORTABLE*  NOT AVBL
PUU MALI*        N/A    N/A N/A N/A S8          N/A
$$

HIC003-251700-
NORTHWEST ISLANDS-

CITY           SKY/WX    TMP DP  RH WIND       PRES   REMARKS
MIDWAY ISLAND  CLOUDY    72  70  94 SW9       29.94F
MIDWAY NOS*      N/A     72 N/A N/A MISG      29.93S
FRENCH FRIGATE NOT AVBL
$$

PHZ110>124-180-251700-
BUOY REPORTS

STATION/POSITION TIME  TEMP    WIND        PRES    WAVE   SWELL
                       AIR SEA DIR/SP/G            HT/PER HT/DIR
                 (UTC) (F)     (DEG/KT/KT) (MB)    (FT/S) (FT/D)
BUOY 51001       1620   75 76  120/ 10/ 12 1019.3
BUOY 51101       1550   75 76  120/ 10/ 12 1019.6R   5/ 9   5/120
BUOY 51100       NOT AVBL
BUOY 51002       1620   77 79   50/ 17/ 23 1016.0
BUOY 51003       1550   77 79   50/ 10/ 12 1017.0R   7/10   7/120
BUOY 51004       1550      77   80/ 17/ 19 1016.7R   7/ 8   5/ 90
BARBERS PT BUOY  NOT AVBL
WAIMEA BAY BUOY  1602      77                N/A     4/12   2/330
KAILUA BAY BUOY  1604      78                N/A     5/ 9   2/ 70
LANAI BUOY       1615      78                N/A     2/15   2/200
BARBERS PT 2     NOT AVBL
PAUWELA MAUI     1609      77                N/A     5/ 8   2/330
HILO             1542      78                N/A     5/ 8   2/ 70
KANEOHE BAY BUOY 1625      78                N/A     4/ 8
HANALEI KAUAI    1622      77                N/A     4/ 9   2/310
KAHULUI HARBOR   1618   75 79   30/ 15/ 18 1018.5
HONOLULU HARBOR  1618   76 79   70/  4/ 12 1019.2
KILO NALU        NOT AVBL
HILO HARBOR      1618   70 76  190/  7/ 10 1018.7
MOKUOLOE         1536   76 79   80/  6/  9 1018.5R
NAWILIWILI       1618   75      40/  7/ 12 1018.9
WHOTS BUOY       NOT AVBL
BUOY 51028       NOT AVBL
$$

......................KEY........................................
  SKY/WX - SKY CONDITIONS/PRESENT WEATHER
  TMP    - TEMPERATURE IN FAHRENHEIT
  DWPT   - DEWPOINT IN FAHRENHEIT
  RH     - RELATIVE HUMIDITY IN PERCENT
  WIND   - DIRECTION AND SPEED /MPH FOR ISLANDS...KTS FOR BUOYS/
  PRES   - MEAN SEA LEVEL PRESSURE IN INCHES OF HG
  VSB    - VISIBILITY IN MILES
  HX     - HEAT INDEX
  WCI    - WIND CHILL INDEX
  VRB    - VARIABLE WIND DIRECTION
  N/A    - NOT AVAILABLE



USA.gov is the U.S. government's official web portal to all federal, state and local government web resources and services.